Temp
10 10 10 11 10 7 10 11 13 14 16 18 19 19 18 20 18 17 22 21 21 21 19 19 19 18 18 17 17 18 17 17 17 17 17 17 16 16 16 16 16 16 16 16 15 15 16 16 16
10 10 10 11 9 8 10 11 12 15 17 18 19 19 19 19 21 22 22 21 20 21 19 19 19 18 18 17 17 17 17 17 17 17 17 17 17 16 16 16 16 15 15 15 16 15 15 16 16
9 9 10 9 9 10 12 12 15 16 18 18 18 19 20 20 22 22 23 22 20 20 20 19 19 19 18 18 18 17 17 17 17 17 17 16 16 16 16 16 16 15 16 16 16 15 16 16 15
9 9 10 8 9 10 12 13 14 15 17 17 18 18 20 21 22 23 22 22 21 20 20 18 19 18 18 18 18 17 17 17 17 17 16 16 16 16 16 16 15 16 16 16 16 15 15 15 15
8 9 8 8 9 10 11 14 14 15 16 17 18 17 19 21 21 22 22 21 21 20 19 18 18 19 18 18 18 17 17 16 16 16 16 16 16 16 16 16 15 16 16 16 15 15 15 15 15
8 9 8 8 9 9 11 12 14 14 16 17 16 18 20 20 21 21 21 21 20 20 19 18 17 18 18 17 17 17 17 16 16 16 16 16 16 16 16 16 16 16 16 15 15 15 15 15 15
6 7 9 8 8 9 10 12 12 13 14 15 17 16 20 21 20 19 19 19 18 19 18 17 17 17 17 17 17 17 15 16 16 16 16 16 16 16 15 15 15 15 15 15 15 15 15 15 15
5 5 8 9 10 9 10 11 13 13 14 16 16 15 17 21 21 19 17 17 16 17 18 17 16 17 17 16 16 15 15 16 16 16 16 16 16 16 15 15 15 15 15 15 15 15 15 14 15
5 3 6 7 8 8 3 4 9 11 13 15 16 17 18 18 19 17 15 15 14 15 16 17 16 16 16 15 15 15 15 15 15 15 15 15 15 15 15 15 15 15 15 15 15 15 15 14 15
3 1 4 2 2 2 2 2 2 5 8 13 14 16 15 16 17 16 17 15 15 14 15 15 15 15 16 15 15 15 15 15 15 15 15 15 15 15 15 14 14 14 15 15 15 14 14 14 14
1 1 2 4 1 -0 1 2 1 3 7 5 5 10 13 12 14 14 17 18 17 15 14 15 15 15 16 15 15 15 15 15 15 15 15 14 14 14 14 14 14 14 15 15 14 14 14 14 14
-3 1 1 2 2 1 2 0 2 3 4 5 6 7 9 13 13 16 17 17 15 15 14 14 14 14 15 15 15 15 14 15 14 15 15 15 14 14 14 14 15 15 14 14 14 14 14 13 13
-2 -0 1 1 2 2 3 2 1 1 4 5 6 7 9 12 14 16 17 17 17 17 16 15 14 14 15 15 15 15 15 15 14 14 14 14 14 14 14 14 14 14 14 14 14 14 14 13 13
-0 -0 -0 1 2 2 2 3 3 3 5 6 7 7 9 10 12 14 16 17 17 16 17 15 15 14 15 15 15 15 15 14 14 14 14 14 14 14 14 14 14 14 14 14 14 14 14 14 13
-0 -2 -1 -0 1 0 3 2 3 5 7 5 7 8 9 9 10 11 13 16 17 16 16 16 17 16 15 15 15 15 15 14 14 14 14 14 14 14 15 14 14 13 13 13 13 13 13 13 13
-3 -2 -4 0 1 2 2 -1 4 6 6 6 8 8 8 9 9 10 12 14 15 17 16 16 16 17 16 15 15 15 14 14 14 14 14 14 14 14 14 14 14 13 13 13 13 13 13 13 13
-6 -5 -3 -1 1 2 1 -0 3 5 6 6 6 6 6 7 9 9 10 12 15 15 16 16 15 16 16 15 15 14 14 14 14 14 14 14 14 13 14 13 13 13 13 13 13 13 13 13 13
-7 -6 -3 -2 0 1 1 0 1 1 4 3 2 2 5 3 4 6 8 11 13 14 14 15 15 16 16 16 14 14 13 14 14 13 14 13 14 13 14 13 13 13 13 13 12 12 12 13 13
-3 -6 -5 -2 0 -0 1 1 -0 -1 -1 -1 0 -0 2 2 2 6 5 7 12 14 14 13 14 15 16 13 14 13 13 14 13 13 12 13 13 13 12 13 13 13 12 12 12 12 12 12 12
-3 -8 -6 -1 1 -1 0 1 -1 -1 -2 -2 -2 -2 -0 3 5 6 7 7 8 11 12 12 12 13 14 13 13 13 13 14 13 13 13 13 13 12 13 13 12 12 12 12 12 12 12 12 12
-6 -7 -3 -1 -1 -1 -0 1 -1 -1 -3 -2 -3 -3 -3 -1 1 3 5 6 6 10 11 11 12 12 12 12 12 13 13 13 12 12 12 12 12 12 12 12 12 12 12 12 12 12 12 13 12
-7 -2 -2 -2 -2 -0 -2 1 -2 -2 -2 -2 -4 -4 -4 -3 0 1 3 6 5 7 9 11 12 12 12 12 12 12 12 12 12 12 12 12 12 12 12 12 12 12 12 12 12 12 12 12 13
-5 -2 -3 -2 -3 -0 -3 -1 -2 -4 -4 -4 -4 -5 -5 -4 -2 2 2 3 4 6 8 10 12 12 12 11 12 12 12 12 12 12 12 13 12 12 12 12 12 12 12 12 12 12 11 12 12
-6 -5 -2 -1 -1 -2 -2 -5 -6 -5 -5 -5 -5 -5 -5 -5 -4 -1 0 3 5 5 5 9 11 12 11 12 11 12 12 12 12 12 12 12 13 12 12 12 12 12 12 12 12 11 11 11 11
-7 -8 -6 -4 -4 -1 -2 -5 -6 -8 -6 -8 -7 -6 -5 -5 -5 -4 0 3 5 6 5 6 8 10 11 10 10 10 11 11 12 12 11 12 11 12 12 12 12 12 12 12 11 11 11 11 11
-9 -10 -9 -4 -4 -4 -6 -6 -6 -7 -5 -5 -5 -6 -6 -5 -4 -4 -3 -0 3 4 5 5 6 7 9 10 10 10 10 10 11 11 11 11 12 12 13 13 12 12 12 12 11 11 11 11 11
-6 -7 -8 -9 -9 -7 -10 -7 -5 -6 -5 -6 -7 -6 -6 -5 -5 -4 -3 -2 0 3 4 5 5 6 7 9 9 10 10 10 10 11 11 11 11 12 12 12 12 11 11 11 11 11 11 11 10
-6 -8 -7 -9 -6 -5 -8 -11 -6 -8 -9 -8 -8 -7 -6 -5 -5 -4 -3 -2 -1 0 1 3 4 5 6 7 8 9 9 9 10 10 10 10 10 10 11 11 11 11 11 11 11 11 11 10 10
-7 -8 -10 -11 -12 -9 -7 -5 -10 -10 -12 -11 -9 -6 -5 -5 -5 -5 -4 -3 -3 -1 0 1 4 5 4 5 6 7 8 9 10 9 10 10 10 10 11 11 11 10 11 11 11 10 10 10 10
-15 -13 -15 -8 -7 -13 -11 -6 -12 -13 -12 -10 -8 -5 -5 -5 -5 -5 -4 -3 -2 -2 -2 0 1 4 4 4 4 6 7 8 8 8 9 9 9 9 9 10 10 10 10 11 11 10 10 10 10
Height
1494 1496 1500 1505 1512 1510 1503 1495 1482 1483 1484 1479 1478 1480 1481 1481 1486 1499 1480 1482 1488 1492 1496 1500 1505 1510 1515 1519 1523 1525 1528 1531 1533 1536 1538 1540 1542 1545 1547 1548 1550 1552 1554 1555 1556 1557 1559 1560 1561
1493 1497 1501 1500 1506 1508 1493 1479 1476 1476 1477 1477 1478 1479 1480 1481 1479 1480 1480 1482 1488 1491 1495 1500 1504 1509 1514 1518 1522 1525 1528 1531 1534 1536 1538 1541 1543 1546 1548 1550 1551 1553 1555 1557 1558 1559 1562 1563 1564
1495 1497 1500 1499 1493 1483 1477 1473 1475 1472 1476 1478 1478 1476 1478 1477 1477 1478 1479 1481 1486 1491 1495 1499 1503 1508 1513 1518 1521 1525 1528 1531 1534 1536 1539 1542 1544 1546 1549 1551 1552 1554 1555 1558 1560 1562 1563 1564 1566
1495 1499 1499 1494 1475 1472 1471 1472 1470 1473 1476 1478 1477 1476 1475 1475 1476 1476 1477 1480 1483 1489 1493 1499 1503 1507 1512 1517 1521 1525 1528 1532 1535 1537 1540 1542 1545 1548 1550 1552 1554 1555 1557 1559 1562 1564 1565 1567 1568
1494 1494 1493 1480 1475 1474 1471 1472 1473 1473 1474 1475 1476 1474 1473 1472 1473 1473 1475 1478 1481 1487 1493 1497 1502 1505 1511 1517 1521 1524 1528 1532 1535 1538 1540 1542 1545 1548 1550 1552 1555 1557 1559 1561 1563 1565 1567 1568 1568
1494 1490 1483 1473 1474 1475 1474 1474 1474 1471 1471 1473 1474 1473 1471 1471 1472 1472 1474 1477 1481 1485 1491 1497 1502 1505 1509 1516 1520 1524 1528 1532 1535 1538 1541 1543 1545 1548 1550 1552 1555 1558 1560 1562 1564 1566 1568 1570 1570
1492 1487 1469 1473 1477 1477 1476 1475 1474 1471 1470 1470 1471 1472 1469 1469 1471 1472 1476 1478 1481 1486 1491 1496 1501 1505 1509 1514 1520 1524 1528 1532 1536 1539 1541 1544 1546 1548 1551 1554 1556 1559 1561 1563 1565 1568 1568 1571 1572
1492 1491 1477 1469 1472 1475 1476 1473 1472 1470 1467 1468 1469 1469 1469 1468 1469 1472 1475 1478 1481 1487 1490 1495 1500 1504 1508 1513 1519 1523 1528 1532 1535 1539 1541 1545 1547 1549 1552 1554 1557 1560 1562 1564 1566 1568 1570 1572 1573
1492 1494 1478 1478 1477 1476 1480 1481 1472 1468 1466 1466 1466 1468 1468 1467 1467 1469 1473 1479 1484 1488 1490 1493 1498 1502 1507 1512 1518 1523 1528 1531 1535 1539 1542 1546 1547 1549 1552 1555 1557 1560 1563 1564 1566 1570 1572 1574 1575
1492 1494 1488 1492 1492 1491 1490 1490 1485 1476 1468 1464 1466 1466 1467 1467 1466 1466 1469 1476 1479 1484 1488 1492 1496 1501 1505 1510 1517 1522 1526 1530 1534 1537 1541 1545 1547 1549 1552 1555 1558 1560 1562 1565 1567 1570 1572 1575 1577
1492 1493 1488 1488 1492 1491 1492 1488 1489 1483 1470 1472 1473 1467 1466 1468 1467 1465 1465 1470 1474 1478 1486 1490 1494 1499 1503 1507 1514 1520 1523 1528 1532 1536 1540 1543 1546 1549 1551 1554 1556 1559 1562 1565 1567 1570 1572 1575 1577
1500 1491 1492 1492 1490 1490 1489 1488 1484 1482 1476 1472 1472 1471 1467 1464 1464 1468 1470 1473 1475 1479 1483 1489 1493 1497 1501 1504 1511 1516 1521 1525 1530 1534 1538 1542 1545 1547 1550 1553 1555 1559 1563 1565 1567 1569 1572 1575 1578
1496 1492 1492 1490 1488 1486 1485 1484 1483 1476 1474 1470 1470 1470 1467 1462 1461 1465 1469 1472 1475 1477 1481 1487 1491 1494 1498 1503 1508 1513 1518 1522 1527 1532 1536 1540 1543 1546 1548 1552 1555 1558 1561 1564 1566 1569 1571 1574 1577
1493 1492 1488 1486 1484 1483 1482 1480 1479 1471 1471 1468 1468 1469 1465 1464 1459 1461 1466 1469 1472 1477 1479 1483 1488 1492 1496 1500 1504 1509 1515 1520 1524 1529 1534 1537 1541 1543 1547 1550 1554 1557 1560 1563 1566 1569 1571 1573 1577
1494 1495 1487 1480 1477 1477 1476 1473 1470 1467 1466 1464 1465 1467 1464 1462 1456 1455 1457 1462 1468 1472 1478 1481 1484 1487 1491 1496 1501 1506 1512 1517 1522 1526 1530 1535 1538 1542 1545 1549 1553 1556 1559 1562 1565 1568 1571 1573 1576
1496 1496 1500 1478 1476 1474 1474 1477 1466 1462 1460 1464 1463 1463 1463 1460 1454 1452 1452 1457 1463 1468 1473 1478 1484 1485 1488 1493 1498 1502 1509 1514 1519 1523 1527 1531 1535 1540 1542 1547 1551 1555 1559 1561 1564 1566 1569 1572 1575
1506 1509 1495 1484 1475 1474 1472 1472 1459 1462 1459 1462 1463 1460 1460 1458 1454 1451 1450 1452 1457 1465 1469 1475 1479 1482 1486 1490 1493 1498 1505 1512 1516 1521 1525 1528 1532 1536 1539 1543 1548 1552 1556 1560 1563 1565 1569 1571 1574
1517 1513 1496 1491 1479 1474 1473 1469 1463 1461 1459 1460 1462 1459 1459 1461 1457 1455 1450 1449 1455 1459 1467 1474 1477 1479 1479 1486 1491 1496 1502 1509 1512 1517 1521 1525 1528 1531 1535 1540 1546 1551 1554 1557 1561 1565 1567 1570 1573
1502 1509 1506 1488 1478 1476 1470 1470 1467 1466 1460 1460 1462 1461 1460 1463 1460 1457 1456 1453 1450 1455 1461 1468 1475 1477 1478 1483 1487 1494 1498 1504 1508 1512 1517 1522 1527 1531 1534 1539 1543 1548 1552 1555 1558 1562 1565 1567 1571
1501 1514 1506 1483 1477 1480 1472 1471 1474 1468 1473 1472 1465 1464 1463 1460 1456 1455 1452 1449 1450 1451 1458 1464 1470 1474 1477 1481 1485 1490 1495 1499 1505 1508 1513 1519 1522 1528 1531 1535 1540 1544 1548 1551 1554 1557 1560 1564 1567
1507 1513 1499 1492 1482 1474 1474 1471 1479 1475 1477 1475 1468 1471 1468 1464 1460 1457 1455 1454 1451 1450 1456 1462 1467 1470 1475 1481 1484 1489 1494 1498 1502 1505 1509 1514 1518 1523 1527 1531 1536 1540 1544 1547 1549 1552 1556 1559 1562
1515 1496 1495 1491 1490 1479 1478 1469 1480 1482 1479 1474 1473 1467 1472 1466 1464 1464 1459 1455 1454 1453 1457 1461 1465 1468 1473 1479 1483 1487 1490 1494 1496 1500 1504 1508 1514 1519 1523 1528 1532 1536 1540 1543 1546 1549 1552 1555 1558
1505 1495 1492 1489 1492 1480 1487 1481 1484 1486 1486 1484 1482 1475 1474 1473 1463 1462 1462 1463 1454 1452 1454 1457 1462 1465 1471 1476 1480 1485 1488 1490 1495 1499 1500 1503 1508 1513 1518 1523 1527 1531 1534 1539 1542 1545 1548 1551 1555
1499 1495 1487 1484 1484 1489 1491 1503 1506 1497 1495 1491 1483 1479 1476 1469 1465 1465 1464 1453 1456 1455 1457 1455 1458 1462 1468 1472 1477 1482 1485 1489 1492 1496 1495 1499 1503 1507 1512 1517 1521 1525 1529 1532 1535 1540 1544 1546 1550
1506 1509 1519 1505 1506 1491 1489 1502 1510 1503 1495 1492 1486 1478 1474 1469 1468 1472 1461 1456 1456 1458 1455 1456 1457 1461 1465 1470 1474 1479 1482 1485 1489 1492 1494 1494 1497 1500 1506 1511 1515 1518 1522 1526 1530 1533 1536 1539 1542
1521 1528 1537 1523 1519 1510 1507 1519 1508 1499 1498 1494 1491 1489 1481 1469 1469 1468 1469 1464 1463 1460 1459 1461 1460 1461 1462 1466 1471 1474 1478 1482 1484 1486 1488 1489 1492 1495 1500 1505 1509 1512 1516 1519 1523 1526 1530 1533 1536
1517 1526 1526 1534 1534 1528 1537 1514 1500 1497 1494 1495 1491 1485 1482 1477 1473 1472 1467 1463 1464 1463 1462 1464 1463 1463 1460 1463 1466 1469 1472 1475 1479 1481 1483 1485 1484 1491 1490 1497 1502 1505 1509 1512 1515 1519 1522 1524 1528
1521 1524 1528 1534 1536 1531 1532 1541 1513 1506 1502 1492 1487 1483 1484 1484 1478 1475 1467 1461 1458 1463 1466 1464 1464 1462 1460 1461 1462 1465 1467 1469 1471 1475 1477 1480 1482 1482 1483 1487 1492 1498 1501 1505 1507 1511 1514 1517 1520
1529 1533 1539 1547 1556 1557 1543 1517 1505 1504 1502 1499 1491 1488 1482 1476 1476 1476 1473 1470 1468 1462 1459 1458 1457 1457 1458 1459 1460 1460 1461 1463 1466 1468 1470 1474 1476 1475 1474 1480 1484 1488 1491 1495 1498 1501 1505 1508 1512
1539 1545 1552 1547 1545 1565 1556 1521 1499 1497 1494 1496 1495 1491 1490 1488 1484 1479 1474 1469 1465 1461 1461 1458 1456 1455 1458 1458 1459 1457 1457 1458 1459 1462 1463 1466 1468 1469 1471 1472 1474 1477 1480 1483 1488 1492 1495 1499 1502
Wind_Speed
9 9 3 7 3 2 6 7 3 3 3 10 8 5 9 4 6 5 6 27 30 35 35 32 30 29 27 26 24 22 21 20 19 20 20 20 20 19 19 19 19 19 20 21 21 22 24 23 22
7 8 6 3 3 4 6 7 12 6 5 2 12 6 2 6 8 5 6 29 31 36 36 34 32 30 27 26 24 23 23 21 21 22 21 21 20 20 20 20 20 21 21 21 22 23 22 20 18
6 8 5 4 4 13 6 4 8 5 12 5 5 12 5 4 9 6 13 31 35 37 35 35 33 31 29 27 25 25 24 23 22 22 22 21 21 21 20 20 21 21 20 21 21 20 19 18 17
6 6 5 5 17 5 4 1 8 4 15 16 6 4 4 13 9 14 19 35 38 39 36 36 34 32 30 28 26 26 25 25 24 23 22 21 22 22 21 21 20 19 20 20 19 19 17 16 14
9 3 5 9 17 3 3 1 3 7 4 7 15 5 3 7 13 16 26 35 38 39 37 38 36 33 31 28 27 26 26 26 24 22 22 23 23 22 22 21 19 19 21 20 19 18 16 14 13
5 5 8 17 11 3 7 7 4 4 14 5 6 5 13 12 11 21 30 35 39 41 38 38 35 32 31 29 28 27 27 26 24 22 22 23 24 23 22 20 19 21 20 19 19 16 14 12 12
2 5 16 6 2 2 4 16 5 4 5 9 4 5 8 15 13 19 31 34 39 40 39 38 36 32 31 30 29 27 25 27 25 23 23 23 23 23 22 20 21 21 21 19 17 15 13 13 13
3 3 14 15 13 15 9 8 18 15 11 10 8 6 4 18 19 21 30 32 39 41 38 39 38 35 32 30 29 26 26 27 25 23 23 23 22 22 22 21 21 22 21 19 17 15 14 14 14
1 3 12 14 16 9 19 13 12 11 14 11 9 8 6 8 24 25 29 28 34 37 38 39 39 36 34 30 29 28 27 26 25 23 23 23 24 23 23 22 22 22 21 20 18 15 14 13 14
1 2 5 3 3 5 16 13 19 13 15 15 18 9 11 14 22 30 35 33 37 39 39 39 40 37 35 33 30 29 28 27 27 25 25 25 25 25 24 23 23 23 22 20 17 16 13 13 13
5 4 4 4 4 5 12 19 19 11 6 11 14 16 11 10 20 31 38 40 40 42 41 39 41 39 38 36 34 32 31 30 27 26 26 27 27 26 26 25 25 25 22 19 18 17 14 14 13
5 4 6 7 8 6 9 13 16 10 14 23 24 21 18 16 21 27 31 32 35 38 41 39 40 39 39 38 37 35 33 32 30 29 29 29 29 29 28 27 27 24 22 21 20 18 16 14 13
3 3 9 18 20 15 15 10 11 23 22 22 19 18 16 16 21 25 32 33 33 35 39 39 39 40 40 39 37 35 34 33 32 31 30 30 31 31 30 28 27 24 24 23 22 20 18 16 16
4 15 16 13 17 15 14 16 15 19 28 27 24 17 16 19 13 25 31 35 35 34 35 42 39 40 41 39 39 38 36 35 34 33 32 32 32 33 31 29 27 26 26 24 22 20 19 18 17
9 7 8 9 15 6 14 12 11 25 19 23 22 17 17 19 16 9 23 34 36 34 33 34 35 39 41 42 41 39 38 36 36 35 34 33 33 33 31 30 28 27 27 26 24 22 21 19 19
5 1 4 6 4 6 5 8 6 17 17 16 21 18 9 11 19 8 13 26 34 36 37 32 35 35 41 42 41 39 38 36 36 37 36 35 34 33 33 31 30 28 29 28 26 24 23 21 20
6 3 6 7 7 4 1 8 7 15 13 16 5 9 8 12 16 6 10 17 33 36 35 39 37 38 42 42 42 41 38 38 38 38 37 36 35 34 35 33 32 31 31 29 27 26 23 24 22
5 5 4 10 6 7 2 13 7 16 9 16 14 13 15 17 20 22 12 11 23 31 29 38 39 40 41 41 41 38 37 38 39 37 37 37 38 37 36 33 32 32 32 31 29 27 26 24 23
7 4 5 12 11 6 3 6 11 17 25 20 18 17 15 17 19 20 20 5 17 29 30 30 38 39 40 39 40 39 40 39 40 39 39 37 35 35 34 33 32 33 34 32 31 30 29 27 25
2 1 6 10 4 2 5 6 10 18 16 19 19 20 22 18 20 20 24 18 8 20 23 26 30 32 37 38 39 37 40 42 41 42 40 36 37 34 37 36 35 36 37 36 34 33 33 30 29
1 2 4 8 12 4 3 3 7 7 16 19 25 20 20 21 21 25 20 24 16 12 23 21 24 26 30 31 29 34 37 37 37 39 39 39 39 38 36 37 37 36 38 38 37 36 34 34 31
3 1 11 12 7 3 4 1 3 9 11 18 24 28 27 22 18 20 22 22 21 10 11 19 21 20 22 26 30 33 32 34 40 41 40 39 40 39 38 37 38 37 40 40 39 37 37 35 33
7 11 11 10 3 3 8 3 5 6 8 17 20 24 25 23 20 16 20 18 22 15 2 11 17 19 20 20 28 31 31 33 35 37 41 41 41 41 40 40 40 39 41 40 41 40 39 37 36
6 3 2 4 1 3 4 4 5 5 7 9 17 22 24 26 22 16 15 17 19 17 9 7 12 17 20 23 23 29 32 32 33 31 40 45 43 44 43 43 43 41 43 42 43 42 40 39 39
9 6 3 5 5 1 6 4 5 5 6 4 13 24 26 24 24 20 17 17 15 18 15 6 8 15 19 21 20 23 28 31 35 36 39 39 43 47 47 47 47 47 45 44 44 44 43 42 43
2 4 4 2 2 4 6 2 4 5 4 12 14 15 21 26 23 24 20 14 13 14 15 12 5 7 16 21 22 22 20 26 28 31 37 43 37 41 47 48 49 49 48 48 46 46 46 45 44
5 5 4 1 1 2 4 5 6 4 6 9 15 18 23 24 23 24 23 17 12 10 12 10 8 5 6 14 23 22 23 25 28 28 34 37 46 35 39 49 50 52 52 52 50 49 49 47 46
5 2 4 3 5 5 4 4 4 5 6 9 14 23 22 21 22 23 23 22 18 11 9 8 9 8 6 8 15 22 24 25 25 27 29 34 43 46 35 47 48 53 55 56 53 52 51 50 48
5 5 4 4 3 3 2 5 6 5 4 5 15 18 20 25 23 22 20 19 17 15 13 11 9 10 10 10 9 16 20 23 25 25 26 32 35 35 50 38 54 52 60 58 57 56 54 53 50
4 4 4 4 6 1 3 5 3 6 6 8 14 15 13 14 17 19 19 19 18 17 16 12 11 11 12 13 12 11 15 21 28 26 26 26 36 37 37 43 44 52 55 60 59 57 56 55 54
Wind_Direction
239 230 142 183 164 119 213 240 215 197 188 214 147 164 184 163 165 207 205 180 175 173 168 166 169 172 175 176 178 177 174 169 164 160 157 153 153 151 148 142 136 129 129 129 128 129 126 126 123
223 206 183 250 217 180 227 214 194 187 196 184 200 158 139 229 224 252 194 176 176 174 170 168 169 171 174 176 177 174 172 167 162 158 156 154 153 153 151 146 140 135 138 136 132 130 130 129 127
224 194 182 193 226 216 241 202 197 238 249 287 204 219 205 216 233 232 200 176 175 178 172 170 170 172 175 177 176 173 170 168 164 159 156 152 152 151 151 149 145 141 137 136 136 134 134 129 127
175 207 258 232 233 261 179 229 169 209 235 243 264 278 201 222 222 237 205 179 177 179 175 173 172 174 175 176 175 172 170 169 166 162 160 158 157 155 152 150 148 147 143 140 138 133 129 128 126
210 223 237 240 242 295 323 299 207 206 212 215 219 253 249 229 216 210 192 183 180 181 178 175 176 174 174 176 176 173 171 170 166 166 164 160 159 158 156 155 154 151 146 143 138 133 130 128 128
256 231 231 242 247 226 266 284 261 221 226 231 201 226 252 265 242 198 190 185 183 183 179 177 178 176 174 176 175 176 173 171 169 169 166 163 163 161 160 160 158 154 151 147 143 138 130 123 126
228 273 245 235 22 343 239 244 256 271 218 225 237 190 239 238 236 198 184 185 185 186 180 179 179 178 176 175 178 177 173 173 173 173 170 168 167 165 164 163 161 160 157 153 146 140 130 125 123
297 285 254 255 254 255 358 282 234 245 255 230 206 225 246 233 224 200 186 187 186 186 183 181 181 179 178 176 179 175 174 176 177 178 174 172 170 168 168 168 167 166 162 158 152 148 140 135 127
315 285 256 267 270 291 354 360 322 286 248 238 223 238 258 260 206 193 184 183 185 183 184 184 183 181 178 176 178 178 180 180 179 179 176 171 174 175 175 174 170 171 168 164 162 156 148 144 133
159 240 253 69 3 2 327 349 334 333 328 253 253 236 308 281 214 192 185 184 185 187 187 187 185 183 181 178 177 181 182 183 183 181 178 176 178 180 179 175 175 177 176 173 166 160 154 152 146
318 222 5 218 341 15 324 315 330 311 289 38 338 312 279 232 219 198 193 194 190 190 188 191 188 186 185 182 181 184 186 186 186 185 180 181 183 183 184 180 180 183 183 177 172 168 164 162 159
348 305 340 307 332 290 304 302 306 291 287 290 309 321 320 270 232 217 206 205 192 191 191 195 192 188 189 185 187 189 190 189 188 189 187 187 187 189 189 187 187 186 183 183 179 176 170 169 170
234 284 328 311 311 289 281 253 274 289 304 295 315 307 322 303 242 218 214 209 209 202 194 194 195 192 191 189 190 193 194 194 191 192 192 193 194 193 195 192 191 186 187 187 185 181 177 176 175
299 299 293 291 282 272 261 254 235 280 284 292 303 300 308 336 291 228 216 213 207 208 205 198 196 198 196 192 195 195 197 198 195 194 198 199 201 200 198 196 191 188 190 190 190 188 183 181 179
289 302 308 263 253 255 250 262 223 258 281 288 285 286 296 326 324 254 221 213 210 209 208 209 207 204 201 197 197 199 200 199 198 198 200 204 205 204 203 197 195 193 192 192 192 190 188 187 184
351 5 351 280 293 268 209 283 303 254 254 259 271 272 319 327 351 278 238 214 210 212 205 212 215 215 208 202 202 203 205 202 203 202 203 207 208 209 207 201 201 195 196 195 195 194 192 191 189
10 293 307 313 328 304 84 290 301 315 230 224 320 90 35 7 11 337 282 234 212 213 211 210 212 217 211 207 207 205 207 204 206 206 207 208 210 209 207 205 202 198 197 197 199 197 199 192 189
284 323 295 304 307 314 289 265 342 20 110 78 45 52 46 22 22 19 345 257 215 204 218 217 221 216 212 209 209 208 207 204 210 209 211 211 214 211 208 206 204 201 198 198 199 202 195 196 194
274 236 274 287 280 305 333 322 47 38 37 38 43 29 35 16 17 27 30 11 205 204 208 215 221 216 214 206 204 206 210 208 210 212 214 214 219 216 210 210 208 204 203 202 201 197 198 193 196
340 24 294 291 293 13 289 99 67 49 28 32 38 32 23 4 24 24 25 32 107 185 196 205 212 223 214 206 209 216 213 217 215 212 214 213 218 220 217 213 211 209 205 204 203 203 200 202 199
337 186 300 313 321 284 239 128 13 49 34 28 33 24 24 22 12 19 27 26 36 149 193 207 208 206 217 219 220 217 214 222 216 219 215 214 218 222 223 217 215 214 213 211 208 210 212 207 205
319 243 320 302 323 317 46 201 46 355 8 19 9 16 7 12 11 17 21 22 20 46 165 189 203 208 210 218 218 227 218 217 216 229 219 218 220 223 223 225 219 221 219 216 215 214 216 218 218
247 321 283 282 242 288 358 24 354 23 350 357 352 1 2 4 14 1 13 25 25 16 350 190 198 203 212 227 232 232 224 224 234 229 226 220 225 223 225 225 225 225 224 224 221 220 219 223 226
300 314 245 253 304 51 319 119 330 1 326 321 337 354 354 6 17 10 1 28 20 17 352 229 208 207 212 217 233 237 235 234 231 236 225 230 225 225 226 227 229 229 227 227 227 226 227 228 227
14 26 340 1 20 8 352 29 238 280 296 290 328 344 358 5 12 5 8 18 22 8 9 333 233 219 218 221 226 241 237 241 244 244 241 230 231 222 228 229 230 231 231 232 232 229 230 230 229
337 116 128 183 346 280 348 345 282 213 294 343 351 357 4 10 7 8 10 13 10 17 12 358 311 229 221 221 225 230 249 250 255 255 245 237 248 242 230 234 234 235 235 234 234 232 233 233 232
313 34 207 108 270 49 293 299 314 334 312 344 348 356 8 11 10 0 2 13 16 359 14 357 339 332 244 226 226 231 237 239 256 260 252 242 239 250 244 239 235 238 239 237 237 234 234 234 234
104 209 18 13 28 349 314 286 248 325 310 329 344 344 357 4 9 3 4 2 3 351 344 5 337 332 326 249 227 227 234 237 239 247 261 253 249 254 249 238 245 247 242 242 240 237 236 237 238
347 6 28 114 92 149 306 283 218 238 218 292 320 336 343 355 360 360 5 7 358 355 335 331 330 324 325 313 274 236 236 234 238 243 254 257 255 257 251 247 242 252 240 242 242 240 238 237 240
127 167 124 96 308 91 154 279 242 245 269 287 309 327 337 348 354 356 359 359 2 2 358 337 328 304 305 313 305 280 259 250 246 250 252 254 253 251 260 244 255 257 244 237 242 243 241 242 242